Pittsfield, IL

2:19 AM CDT on July 23, 2017 (GMT -0500)
Pittsfield Penstone Municipal

Weather History for KPPQ - November, 2013

Change the Weather History Date:

Tuesday, November 5, 2013

  Actual Average (KUIN) Record (KUIN)
Temperature  
Mean Temperature 54 °F -  
Max Temperature 57 °F 51 °F 79 °F (1924)
Min Temperature 52 °F 34 °F 19 °F (1953)
Degree Days  
Heating Degree Days 10    
Growing Degree Days 4 (Base 50)    
Moisture  
Dew Point 51 °F    
Average Humidity 84    
Maximum Humidity 92    
Minimum Humidity 69    
Precipitation  
Precipitation 0.39 in - - ()
Sea Level Pressure  
Sea Level Pressure 30.13 in    
Wind  
Wind Speed 9 mph (SSE)    
Max Wind Speed 16 mph    
Max Gust Speed 23 mph    
Visibility 8 miles    
Events Rain    
Averages and records for this station are not official NWS values.
T = Trace of Precipitation, MM = Missing Value Source: NWS Daily Summary

Daily Weather History Graph

Daily Weather History Graph

Search for Another Location

Airport or City:

Trip Planner

Search our weather history database for the weather conditions in past years. The results will help you decide how hot, cold, wet, or windy it might be!

Date:

Astronomy

Nov. 05, 2013 Rise Set
Actual Time 6:36 AM CST 4:56 PM CST
Civil Twilight 6:08 AM CST 5:24 PM CST
Nautical Twilight 5:36 AM CST 5:56 PM CST
Astronomical Twilight 5:04 AM CST 6:28 PM CST
Moon 8:51 AM CST (11/5) 6:58 PM CST (11/5)
Length of Visible Light 11h 16m
Length of Day
10h 20m
Waxing Crescent, 7% of the Moon is Illuminated
Nov 5
Waxing Crescent
Nov 9
First Quarter
Nov 17
Full
Nov 25
Last Quarter
Dec 2
New

Hourly Weather History & Observations

Time (CST) Temp. Dew Point Humidity Pressure Visibility Wind Dir Wind Speed Gust Speed Precip Events Conditions
12:15 AM 54.9 °F 45.0 °F 69% 30.20 in 10.0 mi SSE 8.1 mph - N/A   Overcast
12:35 AM 54.9 °F 45.0 °F 69% 30.21 in 10.0 mi SSE 5.8 mph - N/A   Overcast
12:55 AM 54.7 °F 45.3 °F 71% 30.20 in 10.0 mi SSE 5.8 mph - N/A   Overcast
1:15 AM 54.9 °F 45.7 °F 71% 30.20 in 10.0 mi South 8.1 mph - N/A   Overcast
1:35 AM 54.9 °F 45.9 °F 72% 30.21 in 10.0 mi South 10.4 mph - N/A   Overcast
1:55 AM 54.7 °F 46.6 °F 74% 30.20 in 10.0 mi SSE 9.2 mph - N/A   Overcast
2:15 AM 54.7 °F 47.3 °F 76% 30.21 in 10.0 mi South 9.2 mph - N/A   Overcast
2:35 AM 54.5 °F 47.8 °F 78% 30.21 in 10.0 mi South 9.2 mph - N/A   Overcast
2:55 AM 53.6 °F 48.4 °F 82% 30.21 in 10.0 mi South 5.8 mph - N/A   Overcast
3:15 AM 54.0 °F 48.2 °F 81% 30.20 in 10.0 mi South 6.9 mph - N/A   Overcast
3:35 AM 54.3 °F 47.8 °F 79% 30.20 in 10.0 mi South 6.9 mph - N/A   Overcast
3:55 AM 54.5 °F 47.8 °F 78% 30.19 in 10.0 mi South 5.8 mph - N/A   Overcast
4:15 AM 54.7 °F 48.0 °F 78% 30.20 in 10.0 mi South 4.6 mph - N/A   Overcast
4:35 AM 54.7 °F 48.2 °F 79% 30.22 in 10.0 mi South 6.9 mph - N/A   Overcast
4:55 AM 54.9 °F 48.4 °F 79% 30.21 in 10.0 mi South 5.8 mph - N/A   Overcast
5:15 AM 54.9 °F 48.4 °F 79% 30.21 in 10.0 mi South 6.9 mph - N/A   Overcast
5:35 AM 54.7 °F 48.4 °F 79% 30.21 in 10.0 mi South 6.9 mph - N/A   Overcast
5:55 AM 54.5 °F 48.4 °F 80% 30.23 in 10.0 mi SSE 5.8 mph - N/A   Overcast
6:15 AM 53.8 °F 48.4 °F 82% 30.23 in 7.0 mi SSE 5.8 mph - N/A   Overcast
6:35 AM 53.6 °F 48.6 °F 83% 30.23 in 10.0 mi SSE 5.8 mph - N/A   Overcast
6:55 AM 53.8 °F 48.4 °F 82% 30.23 in 10.0 mi South 6.9 mph - N/A   Overcast
7:15 AM 54.1 °F 48.4 °F 81% 30.24 in 10.0 mi SSE 8.1 mph - N/A   Overcast
7:35 AM 53.6 °F 49.1 °F 85% 30.24 in 7.0 mi South 9.2 mph - N/A   Overcast
7:55 AM 52.9 °F 50.0 °F 90% 30.25 in 3.0 mi SSE 5.8 mph - N/A   Overcast
8:15 AM 52.9 °F 50.4 °F 91% 30.24 in 2.5 mi SSE 5.8 mph - N/A   Drizzle
8:35 AM 53.1 °F 50.9 °F 92% 30.24 in 4.0 mi SSE 8.1 mph - 0.01 in Rain Rain
8:55 AM 53.2 °F 51.1 °F 92% 30.24 in 5.0 mi SSE 8.1 mph - 0.02 in Rain Light Rain
9:15 AM 53.2 °F 50.9 °F 92% 30.23 in 5.0 mi SSE 6.9 mph - 0.01 in Rain Light Rain
9:35 AM 53.4 °F 50.9 °F 91% 30.23 in 5.0 mi SSE 9.2 mph - 0.03 in Rain Light Rain
9:55 AM 53.6 °F 51.3 °F 92% 30.23 in 5.0 mi SSE 9.2 mph - 0.04 in Rain Light Rain
10:15 AM 54.0 °F 51.6 °F 92% 30.23 in 5.0 mi SSE 9.2 mph - 0.01 in Rain Light Rain
10:35 AM 54.0 °F 51.8 °F 92% 30.22 in 7.0 mi SSE 9.2 mph - 0.03 in Rain Light Rain
10:55 AM 54.0 °F 51.8 °F 92% 30.21 in 7.0 mi SSE 6.9 mph - 0.05 in Rain Light Rain
11:15 AM 54.5 °F 52.2 °F 92% 30.20 in 7.0 mi SSE 6.9 mph - 0.01 in Rain Light Rain
11:35 AM 55.0 °F 52.5 °F 91% 30.19 in 7.0 mi SSE 8.1 mph - 0.02 in Rain Light Rain
11:55 AM 55.4 °F 52.7 °F 91% 30.18 in 7.0 mi South 6.9 mph - 0.02 in   Light Drizzle
12:15 PM 55.4 °F 52.3 °F 89% 30.17 in 7.0 mi SSE 9.2 mph - N/A   Overcast
12:35 PM 55.4 °F 52.5 °F 90% 30.16 in 7.0 mi SSE 13.8 mph - N/A   Overcast
12:55 PM 55.8 °F 52.5 °F 89% 30.14 in 7.0 mi SSE 10.4 mph - N/A   Overcast
1:15 PM 56.3 °F 53.4 °F 90% 30.13 in 5.0 mi SE 11.5 mph - N/A Rain Light Rain
1:35 PM 55.8 °F 52.7 °F 89% 30.11 in 5.0 mi SE 10.4 mph - N/A Rain Light Rain
1:55 PM 56.3 °F 52.7 °F 88% 30.11 in 7.0 mi SE 11.5 mph 16.1 mph N/A   Overcast
2:15 PM 55.9 °F 52.5 °F 88% 30.10 in 7.0 mi SE 10.4 mph 16.1 mph N/A   Overcast
2:35 PM 56.3 °F 52.7 °F 88% 30.09 in 7.0 mi SE 12.7 mph - N/A   Overcast
2:55 PM 56.5 °F 52.3 °F 86% 30.09 in 7.0 mi SSE 8.1 mph - N/A   Overcast
3:15 PM 56.8 °F 52.5 °F 85% 30.08 in 7.0 mi SSE 9.2 mph - N/A   Overcast
3:35 PM 57.2 °F 52.5 °F 84% 30.08 in 10.0 mi SE 10.4 mph - N/A   Overcast
3:55 PM 57.2 °F 52.7 °F 85% 30.07 in 10.0 mi SE 15.0 mph - N/A   Overcast
4:15 PM 57.2 °F 52.7 °F 85% 30.06 in 10.0 mi SE 11.5 mph - N/A Rain Light Rain
4:35 PM 56.8 °F 52.3 °F 85% 30.05 in 7.0 mi SE 12.7 mph - N/A   Light Drizzle
4:55 PM 56.5 °F 52.3 °F 86% 30.05 in 7.0 mi SE 10.4 mph 17.3 mph N/A   Overcast
5:15 PM 56.3 °F 52.3 °F 87% 30.05 in 7.0 mi SE 10.4 mph - N/A   Light Drizzle
5:35 PM 56.3 °F 52.2 °F 86% 30.04 in 10.0 mi SSE 16.1 mph - N/A   Overcast
5:55 PM 56.3 °F 52.0 °F 85% 30.05 in 7.0 mi SSE 15.0 mph - N/A Rain Light Rain
6:15 PM 55.8 °F 52.2 °F 88% 30.04 in 5.0 mi SSE 13.8 mph - N/A   Overcast
6:35 PM 55.8 °F 52.2 °F 88% 30.03 in 10.0 mi SE 9.2 mph - N/A   Overcast
6:55 PM 56.3 °F 52.0 °F 85% 30.02 in 10.0 mi SE 13.8 mph 19.6 mph N/A   Overcast
7:15 PM 56.5 °F 51.8 °F 84% 30.02 in 10.0 mi SSE 12.7 mph - N/A   Overcast
7:35 PM 56.8 °F 51.8 °F 83% 30.01 in 10.0 mi SSE 10.4 mph 16.1 mph N/A   Overcast
7:55 PM 57.2 °F 51.8 °F 82% 30.01 in 10.0 mi South 15.0 mph 18.4 mph N/A Rain Light Rain
8:15 PM 56.3 °F 52.5 °F 87% 30.01 in 5.0 mi SSE 12.7 mph 19.6 mph 0.04 in Rain Rain
8:35 PM 56.3 °F 52.7 °F 88% 30.00 in 7.0 mi South 13.8 mph - 0.10 in Rain Light Rain
8:55 PM 56.5 °F 52.7 °F 87% 30.00 in 10.0 mi South 15.0 mph 20.7 mph 0.10 in Rain Light Rain
9:15 PM 56.8 °F 52.3 °F 85% 29.99 in 10.0 mi South 15.0 mph 20.7 mph N/A   Overcast
9:35 PM 57.2 °F 52.0 °F 83% 29.99 in 10.0 mi South 16.1 mph 21.9 mph N/A   Overcast
9:55 PM 57.7 °F 51.6 °F 80% 29.99 in 10.0 mi South 15.0 mph - N/A   Overcast
10:15 PM 57.2 °F 51.4 °F 81% 29.98 in 10.0 mi South 13.8 mph - 0.01 in Rain Rain
10:35 PM 56.5 °F 51.8 °F 84% 29.99 in 7.0 mi South 12.7 mph 23.0 mph 0.06 in Rain Rain
10:55 PM 55.8 °F 52.0 °F 87% 29.97 in 7.0 mi SSE 12.7 mph - 0.10 in Rain Rain
11:15 PM 55.6 °F 52.2 °F 88% 29.97 in 7.0 mi South 12.7 mph 17.3 mph 0.02 in Rain Rain
11:35 PM 55.4 °F 52.2 °F 89% 29.96 in 7.0 mi South 12.7 mph 19.6 mph 0.05 in Rain Rain
11:55 PM 55.4 °F 52.2 °F 89% 29.95 in 10.0 mi South 15.0 mph 19.6 mph 0.06 in Rain Rain